Location: Newark
(59.4564°N, 26.6917°E)
Time: 02:36:49
(UTC+00:00)

SR - Pass Details

Date: 29 November 2019
Orbit: 573 x 882 km, 66.7° (Epoch: 10 December)

Event Time Altitude Azimuth Distance (km) Brightness Sun altitude
Rises 12:22:59 0° 237° (WSW) 3,326 ? 4.0°
Reaches altitude 10° 12:25:22 10° 240° (WSW) 2,435 ? 3.9°
Maximum altitude 12:31:03 74° 325° (NW) 903 ? 3.5°
Drops below altitude 10° 12:37:02 10° 51° (NE) 2,550 ? 3.0°
Sets 12:39:34 0° 54° (NE) 3,495 ? 2.8°
